Location: Bu�n Treun
(12.1333°N, 108.3167°E)
Time: 23:36:55
(UTC+00:00)

Cosmos 2322 Rocket - Pass Details

Date: 13 July 2020
Orbit: 832 x 851 km, 71.0° (Epoch: 14 August)

Event Time Altitude Azimuth Distance (km) Brightness Sun altitude
Rises 21:49:40 0° 342° (NNW) 3,397 5.4 -9.7°
Reaches altitude 10° 21:52:07 10° 342° (NNW) 2,464 4.7 -9.2°
Maximum altitude 21:57:47 84° 254° (WSW) 857 2.2 -7.9°
Drops below altitude 10° 22:03:28 10° 167° (SSE) 2,471 4.5 -6.7°
Sets 22:05:55 0° 166° (SSE) 3,406 5.2 -6.1°
